Location: Pedholt
(56.0260°N, 10.2097°E)
Time: 06:00:46
(UTC+00:00)

Cosmos 1703 Rocket - Pass Details

Date: 14 July 2020
Orbit: 605 x 634 km, 82.5° (Epoch: 14 August)

Event Time Altitude Azimuth Distance (km) Brightness Sun altitude
Rises 00:27:22 0° 347° (NNW) 2,943 8.2 -11.2°
Reaches altitude 10° 00:29:37 10° 346° (NNW) 2,027 7.2 -11.1°
Maximum altitude 00:34:07 82° 259° (W) 643 3.6 -11.0°
Enters shadow 00:38:06 13° 174° (S) 1,817 5.4 -10.8°
